TimeMDT,TemperatureF,Dew PointF,Humidity,Sea Level PressureIn,VisibilityMPH,Wind Direction,Wind SpeedMPH,Gust SpeedMPH,PrecipitationIn,Events,Conditions,WindDirDegrees,DateUTC
12:52 AM,19.9,10.0,65,30.29,10.0,SSW,8.1,-,N/A,,Clear,210,2013-03-26 06:52:00
1:52 AM,24.1,10.9,57,30.25,10.0,South,13.8,-,N/A,,Clear,190,2013-03-26 07:52:00
2:52 AM,25.0,10.0,53,30.21,10.0,South,12.7,-,N/A,,Clear,180,2013-03-26 08:52:00
3:52 AM,23.0,10.9,60,30.19,10.0,SSW,10.4,-,N/A,,Clear,200,2013-03-26 09:52:00
4:52 AM,21.0,12.0,68,30.18,10.0,SW,5.8,-,N/A,,Clear,220,2013-03-26 10:52:00
5:52 AM,21.0,10.9,65,30.17,10.0,SSW,4.6,-,N/A,,Clear,200,2013-03-26 11:52:00
6:52 AM,23.0,10.9,60,30.17,10.0,South,11.5,-,N/A,,Clear,190,2013-03-26 12:52:00
7:52 AM,26.1,12.0,55,30.17,10.0,SSW,10.4,19.6,N/A,,Clear,200,2013-03-26 13:52:00
8:52 AM,30.9,12.9,47,30.15,10.0,South,15.0,-,N/A,,Clear,190,2013-03-26 14:52:00
10:52 AM,45.0,14.0,29,30.09,10.0,SSW,10.4,19.6,N/A,,Clear,210,2013-03-26 16:52:00
11:52 AM,46.9,12.9,25,30.07,10.0,SW,8.1,18.4,N/A,,Clear,220,2013-03-26 17:52:00
12:52 PM,51.1,10.9,20,30.02,10.0,WSW,10.4,-,N/A,,Clear,240,2013-03-26 18:52:00
1:52 PM,53.1,9.0,17,29.99,10.0,West,9.2,-,N/A,,Clear,270,2013-03-26 19:52:00
2:52 PM,53.1,7.0,16,29.98,10.0,WNW,11.5,-,N/A,,Clear,300,2013-03-26 20:52:00
3:52 PM,53.1,9.0,17,29.98,10.0,Variable,6.9,-,N/A,,Clear,0,2013-03-26 21:52:00
4:52 PM,52.0,10.0,19,29.99,10.0,NW,10.4,-,N/A,,Scattered Clouds,320,2013-03-26 22:52:00
5:52 PM,51.1,5.0,15,29.99,10.0,West,3.5,-,N/A,,Partly Cloudy,270,2013-03-26 23:52:00
6:52 PM,43.0,25.0,49,30.03,10.0,North,12.7,-,N/A,,Clear,10,2013-03-27 00:52:00
7:52 PM,35.1,24.1,64,30.07,10.0,SE,6.9,-,N/A,,Clear,140,2013-03-27 01:52:00
8:52 PM,26.1,19.9,78,30.10,10.0,East,4.6,-,N/A,,Clear,90,2013-03-27 02:52:00
9:52 PM,24.1,18.0,77,30.11,10.0,Calm,Calm,-,N/A,,Clear,0,2013-03-27 03:52:00
10:52 PM,21.0,17.1,85,30.11,8.0,Calm,Calm,-,N/A,,Clear,0,2013-03-27 04:52:00
11:52 PM,19.9,16.0,85,30.12,9.0,NE,3.5,-,N/A,,Clear,50,2013-03-27 05:52:00